Weather History for Cross City, FL

Change the Weather History Date:

Friday, October 31, 2014

  Actual Average Record
Temperature  
Mean Temperature 63 °F 66 °F  
Max Temperature 76 °F 80 °F 86 °F (1999)
Min Temperature 50 °F 53 °F 41 °F (2012)
Degree Days  
Heating Degree Days 2 2  
Month to date heating degree days 17 31  
Since 1 July heating degree days 17 32  
Cooling Degree Days 0 4  
Month to date cooling degree days 194 201  
Year to date cooling degree days 2683 2543  
Growing Degree Days 12 (Base 50)    
Moisture  
Dew Point 47 °F    
Average Humidity 60    
Maximum Humidity 89    
Minimum Humidity 27    
Precipitation  
Precipitation 0.00 in 0.08 in 0.07 in (2011)
Month to date precipitation 1.84 3.40  
Year to date precipitation 54.89 43.23  
Sea Level Pressure  
Sea Level Pressure 29.89 in    
Wind  
Wind Speed 6 mph (NW)    
Max Wind Speed 14 mph    
Max Gust Speed 19 mph    
T = Trace of Precipitation, MM = Missing Value Source: NWS Daily Summary

Daily Weather History Graph

Daily Weather History Graph

Search for Another Location

Airport:

Trip Planner

Search our weather history database for the weather conditions in past years. The results will help you decide how hot, cold, wet, or windy it might be!

Date:

Astronomy

Oct. 31, 2014 Rise Set
Actual Time 7:45 AM EDT 6:46 PM EDT
Civil Twilight 7:20 AM EDT 7:11 PM EDT
Nautical Twilight 6:52 AM EDT 7:39 PM EDT
Astronomical Twilight 6:24 AM EDT 8:07 PM EDT
Moon 2:31 PM EDT (10/31) 1:03 AM EDT (10/31)
Length of Visible Light 11h 50m
Length of Day
11h 01m
First Quarter, 56% of the Moon is Illuminated
Oct 31
First Quarter
Nov 6
Full
Nov 14
Last Quarter
Nov 22
New
Nov 29
First Quarter

Hourly Weather History & Observations

Time (EDT) Temp. Dew Point Humidity Pressure Visibility Wind Dir Wind Speed Gust Speed Precip Events Conditions
12:53 AM 64.0 °F 52.0 °F 65% 29.92 in - NNW 3.5 mph - 0.01 in   Unknown
1:53 AM 64.0 °F 50.0 °F 60% 29.91 in - North 5.8 mph - N/A   Unknown
2:53 AM 60.1 °F 50.0 °F 69% 29.89 in - NNW 3.5 mph - N/A   Unknown
3:53 AM 55.9 °F 50.0 °F 80% 29.89 in - Calm Calm - N/A   Unknown
4:53 AM 54.0 °F 48.9 °F 83% 29.88 in - NNW 4.6 mph - N/A   Unknown
5:53 AM 52.0 °F 48.0 °F 86% 29.89 in - NNW 4.6 mph - N/A   Unknown
6:53 AM 51.1 °F 46.9 °F 86% 29.90 in - NNW 4.6 mph - N/A   Unknown
7:53 AM 50.0 °F 46.0 °F 86% 29.91 in - NNW 4.6 mph - N/A   Unknown
8:53 AM 53.1 °F 48.0 °F 83% 29.92 in - North 5.8 mph - N/A   Unknown
9:53 AM 61.0 °F 48.0 °F 62% 29.94 in - North 4.6 mph - N/A   Unknown
10:53 AM 66.9 °F 46.9 °F 49% 29.94 in - North 8.1 mph - N/A   Unknown
11:53 AM 71.1 °F 46.9 °F 42% 29.92 in - NNW 8.1 mph - N/A   Unknown
12:53 PM 73.0 °F 45.0 °F 37% 29.90 in - NW 10.4 mph - N/A   Unknown
1:53 PM 73.0 °F 43.0 °F 34% 29.87 in - NW 12.7 mph 17.3 mph N/A   Unknown
2:53 PM 75.0 °F 43.0 °F 32% 29.84 in - NNW 11.5 mph - N/A   Unknown
3:53 PM 75.0 °F 39.9 °F 28% 29.83 in - NW 11.5 mph - N/A   Unknown
4:53 PM 73.4 °F 41.0 °F 31% 29.84 in - NW 9.2 mph - N/A   Unknown
5:53 PM 71.1 °F 48.9 °F 45% 29.85 in - West 6.9 mph - N/A   Unknown
6:53 PM 64.0 °F 50.0 °F 60% 29.86 in - West 4.6 mph - N/A   Unknown
7:53 PM 57.9 °F 50.0 °F 75% 29.88 in - West 3.5 mph - N/A   Unknown
8:53 PM 60.1 °F 46.0 °F 60% 29.90 in - NW 6.9 mph - N/A   Unknown
9:53 PM 55.9 °F 46.0 °F 69% 29.91 in - West 3.5 mph - N/A   Unknown
10:53 PM 53.1 °F 46.0 °F 77% 29.91 in - Calm Calm - N/A   Unknown
11:53 PM 54.0 °F 45.0 °F 72% 29.91 in - WNW 8.1 mph - N/A   Unknown